Weather History for KPTS - November, 2013

Change the Weather History Date:

Friday, November 22, 2013

  Actual Average (KJLN) Record (KJLN)
Temperature  
Mean Temperature 31 °F 45 °F  
Max Temperature 32 °F 56 °F 77 °F (1955)
Min Temperature 30 °F 35 °F 19 °F (1964)
Degree Days  
Heating Degree Days 34 20  
Month to date heating degree days 331  
Since 1 July heating degree days 583  
Cooling Degree Days 0 0  
Month to date cooling degree days 5  
Year to date cooling degree days 1696  
Moisture  
Dew Point 30 °F    
Average Humidity 94    
Maximum Humidity 100    
Minimum Humidity 88    
Precipitation  
Precipitation 0.02 in 0.12 in 2.03 in (1992)
Month to date precipitation 2.82  
Year to date precipitation 42.77  
Sea Level Pressure  
Sea Level Pressure 30.51 in    
Wind  
Wind Speed 11 mph (NNE)    
Max Wind Speed 15 mph    
Max Gust Speed 25 mph    
Visibility 10 miles    
Events      
T = Trace of Precipitation, MM = Missing Value Source: NWS Daily Summary

Daily Weather History Graph

Daily Weather History Graph

Search for Another Location

Airport or City:

Trip Planner

Search our weather history database for the weather conditions in past years. The results will help you decide how hot, cold, wet, or windy it might be!

Date:

Astronomy

Nov. 22, 2013 Rise Set
Actual Time 7:06 AM CST 5:03 PM CST
Civil Twilight 6:37 AM CST 5:32 PM CST
Nautical Twilight 6:05 AM CST 6:04 PM CST
Astronomical Twilight 5:34 AM CST 6:35 PM CST
Moon 9:35 PM CST (11/22) 10:51 AM CST (11/22)
Length of Visible Light 10h 54m
Length of Day
9h 57m
Waning Gibbous, 78% of the Moon is Illuminated
Nov 22
Waning Gibbous
Nov 25
Last Quarter
Dec 2
New
Dec 9
First Quarter
Dec 17
Full

Hourly Weather History & Observations

Time (CST) Temp. Windchill Dew Point Humidity Pressure Visibility Wind Dir Wind Speed Gust Speed Precip Events Conditions
12:15 AM 32.9 °F 24.1 °F 32.9 °F 100% 30.37 in 7.0 mi North 11.5 mph 20.7 mph N/A   Overcast
12:35 AM 32.9 °F 25.9 °F 32.9 °F 100% 30.37 in 7.0 mi North 8.1 mph 19.6 mph N/A   Overcast
12:55 AM 32.9 °F 23.2 °F 32.9 °F 100% 30.37 in 5.0 mi North 13.8 mph 21.9 mph N/A   Overcast
1:15 AM 32.9 °F 23.2 °F 32.9 °F 100% 30.38 in 3.0 mi North 13.8 mph 19.6 mph N/A   Overcast
1:35 AM 32.9 °F 24.1 °F 32.9 °F 100% 30.39 in 10.0 mi North 11.5 mph 17.3 mph N/A   Overcast
1:55 AM - - - N/A% 30.40 in 10.0 mi North 9.2 mph 17.3 mph 0.01 in   Overcast
2:15 AM 32.0 °F 24.8 °F 32.2 °F 100% 30.41 in 10.0 mi North 8.1 mph 19.6 mph N/A   Overcast
2:35 AM 32.0 °F 23.0 °F 32.0 °F 100% 30.42 in 7.0 mi North 11.5 mph 21.9 mph N/A   Overcast
3:15 AM - - - N/A% 30.42 in 7.0 mi North 12.7 mph 18.4 mph N/A   Overcast
3:35 AM 30.7 °F 22.0 °F 30.9 °F 100% 30.42 in 7.0 mi North 10.4 mph 21.9 mph N/A   Overcast
3:55 AM 30.7 °F 21.4 °F 30.9 °F 100% 30.43 in 10.0 mi North 11.5 mph 21.9 mph N/A   Overcast
4:15 AM 30.7 °F 20.4 °F 30.9 °F 100% 30.43 in 10.0 mi North 13.8 mph 25.3 mph N/A   Overcast
4:35 AM 30.7 °F 20.4 °F 30.9 °F 100% 30.44 in 10.0 mi North 13.8 mph 20.7 mph N/A   Overcast
4:55 AM 30.7 °F 22.0 °F 30.9 °F 100% 30.45 in 10.0 mi North 10.4 mph 17.3 mph N/A   Overcast
5:15 AM 30.7 °F 21.4 °F 30.9 °F 100% 30.45 in 10.0 mi North 11.5 mph 18.4 mph N/A   Overcast
5:35 AM 30.7 °F 21.4 °F 30.9 °F 100% 30.46 in 10.0 mi North 11.5 mph 19.6 mph N/A   Overcast
5:55 AM 30.7 °F 22.0 °F 30.9 °F 100% 30.47 in 10.0 mi North 10.4 mph 19.6 mph N/A   Overcast
6:15 AM 30.7 °F 20.9 °F 30.7 °F 100% 30.47 in 10.0 mi NNE 12.7 mph 18.4 mph N/A   Overcast
6:35 AM 30.7 °F 20.9 °F 30.6 °F 99% 30.49 in 10.0 mi North 12.7 mph 19.6 mph N/A   Overcast
6:55 AM 30.7 °F 20.9 °F 30.2 °F 98% 30.49 in 10.0 mi North 12.7 mph 19.6 mph 0.01 in   Overcast
7:15 AM 30.7 °F 21.4 °F 30.2 °F 98% 30.51 in 10.0 mi North 11.5 mph 19.6 mph N/A   Overcast
7:35 AM 30.7 °F 22.0 °F 30.0 °F 97% 30.52 in 10.0 mi North 10.4 mph 18.4 mph N/A   Overcast
7:55 AM 30.7 °F 21.4 °F 30.0 °F 97% 30.53 in 10.0 mi North 11.5 mph 16.1 mph N/A   Overcast
8:15 AM 30.7 °F 21.4 °F 29.8 °F 96% 30.52 in 10.0 mi North 11.5 mph 20.7 mph N/A   Overcast
8:35 AM 30.7 °F 21.4 °F 29.3 °F 94% 30.54 in 10.0 mi North 11.5 mph 17.3 mph N/A   Overcast
8:55 AM 30.7 °F 20.4 °F 29.1 °F 94% 30.54 in 10.0 mi NNE 13.8 mph 17.3 mph N/A   Overcast
9:15 AM 30.7 °F 20.4 °F 28.9 °F 93% 30.53 in 7.0 mi NNE 13.8 mph 20.7 mph N/A   Overcast
9:35 AM 30.7 °F 22.0 °F 28.4 °F 91% 30.54 in 10.0 mi North 10.4 mph - N/A   Overcast
9:55 AM 30.7 °F 22.0 °F 28.4 °F 91% 30.54 in 10.0 mi NNE 10.4 mph 16.1 mph N/A   Overcast
10:15 AM 30.9 °F 21.2 °F 28.4 °F 90% 30.54 in 10.0 mi NE 12.7 mph - N/A   Overcast
10:35 AM 30.7 °F 22.6 °F 28.2 °F 90% 30.55 in 10.0 mi NE 9.2 mph - N/A   Overcast
10:55 AM 30.9 °F 22.8 °F 28.0 °F 89% 30.56 in 10.0 mi NNE 9.2 mph - N/A   Overcast
11:15 AM 31.8 °F 25.4 °F 28.9 °F 89% 30.55 in 10.0 mi North 6.9 mph - N/A   Overcast
11:35 AM 32.2 °F 23.2 °F 29.7 °F 90% 30.54 in 10.0 mi North 11.5 mph 16.1 mph N/A   Overcast
11:55 AM 31.8 °F 23.9 °F 29.1 °F 90% 30.52 in 10.0 mi NNE 9.2 mph - N/A   Overcast
12:15 PM 31.1 °F 23.1 °F 28.2 °F 89% 30.51 in 10.0 mi North 9.2 mph - N/A   Overcast
12:35 PM 30.9 °F 24.3 °F 28.0 °F 89% 30.53 in 10.0 mi North 6.9 mph - N/A   Overcast
12:55 PM 31.3 °F 25.6 °F 28.4 °F 89% 30.53 in 10.0 mi North 5.8 mph - N/A   Overcast
1:15 PM 31.6 °F 25.1 °F 28.4 °F 88% 30.54 in 10.0 mi North 6.9 mph - N/A   Overcast
1:35 PM 32.0 °F 24.8 °F 28.9 °F 88% 30.52 in 10.0 mi North 8.1 mph - N/A   Overcast
1:55 PM 32.0 °F 24.2 °F 29.1 °F 89% 30.54 in 10.0 mi North 9.2 mph - N/A   Overcast
2:15 PM 32.2 °F 24.4 °F 29.5 °F 90% 30.53 in 10.0 mi North 9.2 mph - N/A   Overcast
2:35 PM 32.7 °F 25.7 °F 30.2 °F 90% 30.54 in 10.0 mi NNE 8.1 mph - N/A   Mostly Cloudy
2:55 PM 32.9 °F 25.9 °F 30.0 °F 89% 30.54 in 10.0 mi NNE 8.1 mph - N/A   Mostly Cloudy
3:15 PM 32.9 °F 25.9 °F 30.2 °F 90% 30.54 in 10.0 mi North 8.1 mph - N/A   Mostly Cloudy
3:35 PM 32.9 °F 28.5 °F 30.7 °F 92% 30.56 in 10.0 mi North 4.6 mph - N/A   Mostly Cloudy
3:55 PM 32.9 °F 25.9 °F 30.7 °F 92% 30.55 in 10.0 mi NNE 8.1 mph - N/A   Mostly Cloudy
4:15 PM 32.9 °F 26.7 °F 30.6 °F 91% 30.54 in 10.0 mi North 6.9 mph - N/A   Overcast
4:35 PM 32.9 °F 24.7 °F 30.7 °F 92% 30.53 in 10.0 mi NNE 10.4 mph - N/A   Overcast
4:55 PM 32.9 °F 26.7 °F 30.7 °F 92% 30.54 in 10.0 mi North 6.9 mph - N/A   Overcast
5:15 PM 32.9 °F 23.7 °F 30.6 °F 91% 30.53 in 10.0 mi NNE 12.7 mph 17.3 mph N/A   Overcast
5:35 PM 32.9 °F 25.3 °F 30.4 °F 90% 30.54 in 10.0 mi NNE 9.2 mph - N/A   Overcast
5:55 PM 32.9 °F 23.7 °F 30.7 °F 92% 30.54 in 10.0 mi NNE 12.7 mph - N/A   Overcast
6:15 PM 32.9 °F 25.9 °F 31.1 °F 93% 30.54 in 10.0 mi NNE 8.1 mph - N/A   Overcast
6:35 PM 32.9 °F 23.2 °F 30.9 °F 92% 30.54 in 10.0 mi NNE 13.8 mph 17.3 mph N/A   Overcast
6:55 PM 32.9 °F 25.3 °F 30.6 °F 91% 30.53 in 10.0 mi NNE 9.2 mph - N/A   Overcast
7:15 PM 32.9 °F 24.1 °F 30.7 °F 92% 30.54 in 10.0 mi NNE 11.5 mph - N/A   Overcast
7:35 PM 32.9 °F 23.2 °F 30.7 °F 92% 30.54 in 10.0 mi NNE 13.8 mph 18.4 mph N/A   Overcast
7:55 PM 32.9 °F 24.1 °F 30.7 °F 92% 30.53 in 10.0 mi NNE 11.5 mph - N/A   Overcast
8:15 PM 32.4 °F 24.0 °F 30.6 °F 93% 30.53 in 10.0 mi North 10.4 mph 17.3 mph N/A   Overcast
8:35 PM 32.4 °F 22.1 °F 30.9 °F 94% 30.53 in 10.0 mi NNE 15.0 mph 18.4 mph N/A   Overcast
8:55 PM 32.0 °F 21.6 °F 30.4 °F 94% 30.54 in 10.0 mi NNE 15.0 mph 23.0 mph N/A   Overcast
9:15 PM 32.0 °F 23.6 °F 29.7 °F 91% 30.55 in 10.0 mi NNE 10.4 mph - N/A   Overcast
9:35 PM 32.0 °F 23.0 °F 29.3 °F 90% 30.54 in 10.0 mi NNE 11.5 mph - N/A   Mostly Cloudy
9:55 PM 32.0 °F 24.8 °F 29.3 °F 90% 30.55 in 10.0 mi NNE 8.1 mph - N/A   Mostly Cloudy
10:15 PM 32.0 °F 24.8 °F 29.3 °F 90% 30.56 in 10.0 mi NNE 8.1 mph - N/A   Mostly Cloudy
10:35 PM 32.0 °F 23.0 °F 29.3 °F 90% 30.56 in 10.0 mi NNE 11.5 mph 16.1 mph N/A   Mostly Cloudy
10:55 PM 32.0 °F 24.2 °F 29.3 °F 90% 30.56 in 10.0 mi NNE 9.2 mph - N/A   Mostly Cloudy
11:15 PM 31.5 °F 20.9 °F 29.1 °F 91% 30.56 in 10.0 mi NNE 15.0 mph - N/A   Mostly Cloudy
11:35 PM 30.9 °F 22.8 °F 28.9 °F 92% 30.56 in 10.0 mi NNE 9.2 mph - N/A   Scattered Clouds
11:55 PM 30.7 °F 22.6 °F 29.1 °F 94% 30.56 in 10.0 mi NNE 9.2 mph - N/A   Scattered Clouds